Location: Ar Ranvel
(48.3000°N, 4.8833°W)
Time: 10:07:29
(UTC+00:00)

Cosmos 1606 Rocket - Pass Details

Date: 16 June 2021
Orbit: 602 x 633 km, 82.5° (Epoch: 03 August)

Event Time Altitude Azimuth Distance (km) Brightness Sun altitude
Rises 23:41:10 0° 344° (NNW) 2,941 8.7 -17.8°
Reaches altitude 10° 23:43:30 10° 338° (NNW) 2,026 7.4 -17.8°
Maximum altitude 23:47:45 43° 268° (W) 888 4.3 -17.9°
Enters shadow 23:49:36 28° 215° (SW) 1,190 4.6 -18.0°
